Year,Month,Day,Hour,Minute,Value (Times are PST for insolation in W/m^2)
2018,06,10,00,00,0.00
2018,06,10,00,01,0.00
2018,06,10,00,02,0.00
2018,06,10,00,03,0.00
2018,06,10,00,04,0.00
2018,06,10,00,05,0.00
2018,06,10,00,06,0.00
2018,06,10,00,07,0.00
2018,06,10,00,08,0.00
2018,06,10,00,09,0.00
2018,06,10,00,10,0.00
2018,06,10,00,11,0.00
2018,06,10,00,12,0.00
2018,06,10,00,13,0.00
2018,06,10,00,14,0.00
2018,06,10,00,15,0.00
2018,06,10,00,16,0.00
2018,06,10,00,17,0.00
2018,06,10,00,18,0.00
2018,06,10,00,19,0.00
2018,06,10,00,20,0.00
2018,06,10,00,21,0.00
2018,06,10,00,22,0.00
2018,06,10,00,23,0.00
2018,06,10,00,24,0.00
2018,06,10,00,25,0.00
2018,06,10,00,26,0.00
2018,06,10,00,27,0.00
2018,06,10,00,28,0.00
2018,06,10,00,29,0.00
2018,06,10,00,30,0.00
2018,06,10,00,31,0.00
2018,06,10,00,32,0.00
2018,06,10,00,33,0.00
2018,06,10,00,34,0.00
2018,06,10,00,35,0.00
2018,06,10,00,36,0.00
2018,06,10,00,37,0.00
2018,06,10,00,38,0.00
2018,06,10,00,39,0.00
2018,06,10,00,40,0.00
2018,06,10,00,41,0.00
2018,06,10,00,42,0.00
2018,06,10,00,43,0.00
2018,06,10,00,44,0.00
2018,06,10,00,45,0.00
2018,06,10,00,46,0.00
2018,06,10,00,47,0.00
2018,06,10,00,48,0.00
2018,06,10,00,49,0.00
2018,06,10,00,50,0.00
2018,06,10,00,51,0.00
2018,06,10,00,52,0.00
2018,06,10,00,53,0.00
2018,06,10,00,54,0.00
2018,06,10,00,55,0.00
2018,06,10,00,56,0.00
2018,06,10,00,57,0.00
2018,06,10,00,58,0.00
2018,06,10,00,59,0.00
2018,06,10,01,00,0.00
2018,06,10,01,01,0.00
2018,06,10,01,02,0.00
2018,06,10,01,03,0.00
2018,06,10,01,04,0.00
2018,06,10,01,05,0.00
2018,06,10,01,06,0.00
2018,06,10,01,07,0.00
2018,06,10,01,08,0.00
2018,06,10,01,09,0.00
2018,06,10,01,10,0.00
2018,06,10,01,11,0.00
2018,06,10,01,12,0.00
2018,06,10,01,13,0.00
2018,06,10,01,14,0.00
2018,06,10,01,15,0.00
2018,06,10,01,16,0.00
2018,06,10,01,17,0.00
2018,06,10,01,18,0.00
2018,06,10,01,19,0.00
2018,06,10,01,20,0.00
2018,06,10,01,21,0.00
2018,06,10,01,22,0.00
2018,06,10,01,23,0.00
2018,06,10,01,24,0.00
2018,06,10,01,25,0.00
2018,06,10,01,26,0.00
2018,06,10,01,27,0.00
2018,06,10,01,28,0.00
2018,06,10,01,29,0.00
2018,06,10,01,30,0.00
2018,06,10,01,31,0.00
2018,06,10,01,32,0.00
2018,06,10,01,33,0.00
2018,06,10,01,34,0.00
2018,06,10,01,35,0.00
2018,06,10,01,36,0.00
2018,06,10,01,37,0.00
2018,06,10,01,38,0.00
2018,06,10,01,39,0.00
2018,06,10,01,40,0.00
2018,06,10,01,41,0.00
2018,06,10,01,42,0.00
2018,06,10,01,43,0.00
2018,06,10,01,44,0.00
2018,06,10,01,45,0.00
2018,06,10,01,46,0.00
2018,06,10,01,47,0.00
2018,06,10,01,48,0.00
2018,06,10,01,49,0.00
2018,06,10,01,50,0.00
2018,06,10,01,51,0.00
2018,06,10,01,52,0.00
2018,06,10,01,53,0.00
2018,06,10,01,54,0.00
2018,06,10,01,55,0.00
2018,06,10,01,56,0.00
2018,06,10,01,57,0.00
2018,06,10,01,58,0.00
2018,06,10,01,59,0.00
2018,06,10,02,00,0.00
2018,06,10,02,01,0.00
2018,06,10,02,02,0.00
2018,06,10,02,03,0.00
2018,06,10,02,04,0.00
2018,06,10,02,05,0.00
2018,06,10,02,06,0.00
2018,06,10,02,07,0.00
2018,06,10,02,08,0.00
2018,06,10,02,09,0.00
2018,06,10,02,10,0.00
2018,06,10,02,11,0.00
2018,06,10,02,12,0.00
2018,06,10,02,13,0.00
2018,06,10,02,14,0.00
2018,06,10,02,15,0.00
2018,06,10,02,16,0.00
2018,06,10,02,17,0.00
2018,06,10,02,18,0.00
2018,06,10,02,19,0.00
2018,06,10,02,20,0.00
2018,06,10,02,21,0.00
2018,06,10,02,22,0.00
2018,06,10,02,23,0.00
2018,06,10,02,24,0.00
2018,06,10,02,25,0.00
2018,06,10,02,26,0.00
2018,06,10,02,27,0.00
2018,06,10,02,28,0.00
2018,06,10,02,29,0.00
2018,06,10,02,30,0.00
2018,06,10,02,31,0.00
2018,06,10,02,32,0.00
2018,06,10,02,33,0.00
2018,06,10,02,34,0.00
2018,06,10,02,35,0.00
2018,06,10,02,36,0.00
2018,06,10,02,37,0.00
2018,06,10,02,38,0.00
2018,06,10,02,39,0.00
2018,06,10,02,40,0.00
2018,06,10,02,41,0.00
2018,06,10,02,42,0.00
2018,06,10,02,43,0.00
2018,06,10,02,44,0.00
2018,06,10,02,45,0.00
2018,06,10,02,46,0.00
2018,06,10,02,47,0.00
2018,06,10,02,48,0.00
2018,06,10,02,49,0.00
2018,06,10,02,50,0.00
2018,06,10,02,51,0.00
2018,06,10,02,52,0.00
2018,06,10,02,53,0.00
2018,06,10,02,54,0.00
2018,06,10,02,55,0.00
2018,06,10,02,56,0.00
2018,06,10,02,57,0.00
2018,06,10,02,58,0.00
2018,06,10,02,59,0.00
2018,06,10,03,00,0.00
2018,06,10,03,01,0.00
2018,06,10,03,02,0.00
2018,06,10,03,03,0.00
2018,06,10,03,04,0.00
2018,06,10,03,05,0.00
2018,06,10,03,06,0.00
2018,06,10,03,07,0.00
2018,06,10,03,08,0.00
2018,06,10,03,09,0.00
2018,06,10,03,10,0.00
2018,06,10,03,11,0.00
2018,06,10,03,12,0.00
2018,06,10,03,13,0.00
2018,06,10,03,14,0.00
2018,06,10,03,15,0.00
2018,06,10,03,16,0.00
2018,06,10,03,17,0.00
2018,06,10,03,18,0.00
2018,06,10,03,19,0.00
2018,06,10,03,20,0.00
2018,06,10,03,21,0.00
2018,06,10,03,22,0.00
2018,06,10,03,23,0.00
2018,06,10,03,24,0.00
2018,06,10,03,25,0.00
2018,06,10,03,26,0.00
2018,06,10,03,27,0.00
2018,06,10,03,28,0.00
2018,06,10,03,29,0.00
2018,06,10,03,30,0.00
2018,06,10,03,31,0.00
2018,06,10,03,32,0.00
2018,06,10,03,33,0.00
2018,06,10,03,34,0.00
2018,06,10,03,35,0.00
2018,06,10,03,36,0.00
2018,06,10,03,37,0.00
2018,06,10,03,38,0.00
2018,06,10,03,39,0.00
2018,06,10,03,40,0.00
2018,06,10,03,41,0.00
2018,06,10,03,42,0.00
2018,06,10,03,43,0.00
2018,06,10,03,44,0.00
2018,06,10,03,45,0.00
2018,06,10,03,46,0.00
2018,06,10,03,47,0.00
2018,06,10,03,48,0.00
2018,06,10,03,49,0.00
2018,06,10,03,50,0.00
2018,06,10,03,51,0.00
2018,06,10,03,52,0.00
2018,06,10,03,53,0.00
2018,06,10,03,54,0.00
2018,06,10,03,55,0.00
2018,06,10,03,56,0.00
2018,06,10,03,57,0.00
2018,06,10,03,58,0.00
2018,06,10,03,59,0.00
2018,06,10,04,00,0.00
2018,06,10,04,01,0.00
2018,06,10,04,02,0.00
2018,06,10,04,03,0.00
2018,06,10,04,04,0.00
2018,06,10,04,05,0.00
2018,06,10,04,06,0.00
2018,06,10,04,07,0.00
2018,06,10,04,08,0.00
2018,06,10,04,09,0.00
2018,06,10,04,10,0.00
2018,06,10,04,11,0.00
2018,06,10,04,12,0.00
2018,06,10,04,13,0.00
2018,06,10,04,14,0.00
2018,06,10,04,15,0.00
2018,06,10,04,16,0.00
2018,06,10,04,17,0.00
2018,06,10,04,18,0.00
2018,06,10,04,19,0.00
2018,06,10,04,20,0.00
2018,06,10,04,21,0.00
2018,06,10,04,22,0.00
2018,06,10,04,23,0.00
2018,06,10,04,24,0.00
2018,06,10,04,25,0.00
2018,06,10,04,26,0.00
2018,06,10,04,27,0.00
2018,06,10,04,28,0.00
2018,06,10,04,29,0.00
2018,06,10,04,30,0.00
2018,06,10,04,31,0.00
2018,06,10,04,32,0.00
2018,06,10,04,33,0.00
2018,06,10,04,34,0.00
2018,06,10,04,35,0.00
2018,06,10,04,36,0.00
2018,06,10,04,37,0.00
2018,06,10,04,38,0.00
2018,06,10,04,39,0.00
2018,06,10,04,40,0.00
2018,06,10,04,41,0.00
2018,06,10,04,42,0.00
2018,06,10,04,43,0.00
2018,06,10,04,44,0.00
2018,06,10,04,45,0.00
2018,06,10,04,46,0.00
2018,06,10,04,47,0.00
2018,06,10,04,48,0.00
2018,06,10,04,49,0.00
2018,06,10,04,50,0.00
2018,06,10,04,51,0.00
2018,06,10,04,52,0.00
2018,06,10,04,53,0.00
2018,06,10,04,54,0.00
2018,06,10,04,55,0.00
2018,06,10,04,56,0.00
2018,06,10,04,57,0.00
2018,06,10,04,58,0.00
2018,06,10,04,59,0.00
2018,06,10,05,00,0.00
2018,06,10,05,01,0.00
2018,06,10,05,02,0.00
2018,06,10,05,03,0.00
2018,06,10,05,04,0.00
2018,06,10,05,05,0.00
2018,06,10,05,06,0.00
2018,06,10,05,07,0.00
2018,06,10,05,08,0.00
2018,06,10,05,09,0.00
2018,06,10,05,10,0.00
2018,06,10,05,11,0.00
2018,06,10,05,12,0.00
2018,06,10,05,13,0.00
2018,06,10,05,14,0.00
2018,06,10,05,15,0.00
2018,06,10,05,16,0.00
2018,06,10,05,17,0.00
2018,06,10,05,18,0.00
2018,06,10,05,19,0.00
2018,06,10,05,20,0.00
2018,06,10,05,21,1.30
2018,06,10,05,22,5.00
2018,06,10,05,23,5.00
2018,06,10,05,24,5.00
2018,06,10,05,25,5.00
2018,06,10,05,26,5.00
2018,06,10,05,27,5.30
2018,06,10,05,28,7.00
2018,06,10,05,29,7.00
2018,06,10,05,30,8.00
2018,06,10,05,31,9.00
2018,06,10,05,32,10.50
2018,06,10,05,33,11.90
2018,06,10,05,34,14.00
2018,06,10,05,35,14.50
2018,06,10,05,36,16.80
2018,06,10,05,37,18.00
2018,06,10,05,38,18.00
2018,06,10,05,39,18.80
2018,06,10,05,40,20.80
2018,06,10,05,41,26.90
2018,06,10,05,42,32.30
2018,06,10,05,43,32.60
2018,06,10,05,44,29.80
2018,06,10,05,45,26.70
2018,06,10,05,46,26.00
2018,06,10,05,47,26.00
2018,06,10,05,48,30.90
2018,06,10,05,49,39.00
2018,06,10,05,50,36.40
2018,06,10,05,51,32.00
2018,06,10,05,52,34.00
2018,06,10,05,53,35.00
2018,06,10,05,54,36.80
2018,06,10,05,55,37.30
2018,06,10,05,56,39.30
2018,06,10,05,57,42.80
2018,06,10,05,58,50.50
2018,06,10,05,59,62.20
2018,06,10,06,00,68.50
2018,06,10,06,01,59.70
2018,06,10,06,02,50.20
2018,06,10,06,03,47.20
2018,06,10,06,04,49.30
2018,06,10,06,05,48.10
2018,06,10,06,06,65.80
2018,06,10,06,07,77.00
2018,06,10,06,08,61.80
2018,06,10,06,09,62.70
2018,06,10,06,10,76.60
2018,06,10,06,11,69.60
2018,06,10,06,12,84.50
2018,06,10,06,13,100.00
2018,06,10,06,14,92.50
2018,06,10,06,15,106.20
2018,06,10,06,16,113.40
2018,06,10,06,17,116.50
2018,06,10,06,18,118.00
2018,06,10,06,19,118.00
2018,06,10,06,20,118.00
2018,06,10,06,21,118.00
2018,06,10,06,22,116.30
2018,06,10,06,23,106.90
2018,06,10,06,24,80.20
2018,06,10,06,25,63.80
2018,06,10,06,26,50.00
2018,06,10,06,27,43.40
2018,06,10,06,28,45.00
2018,06,10,06,29,44.10
2018,06,10,06,30,42.20
2018,06,10,06,31,44.50
2018,06,10,06,32,46.40
2018,06,10,06,33,48.00
2018,06,10,06,34,49.00
2018,06,10,06,35,50.50
2018,06,10,06,36,52.70
2018,06,10,06,37,51.30
2018,06,10,06,38,55.10
2018,06,10,06,39,69.20
2018,06,10,06,40,98.10
2018,06,10,06,41,100.60
2018,06,10,06,42,83.00
2018,06,10,06,43,87.30
2018,06,10,06,44,93.20
2018,06,10,06,45,100.10
2018,06,10,06,46,113.00
2018,06,10,06,47,97.20
2018,06,10,06,48,99.80
2018,06,10,06,49,114.80
2018,06,10,06,50,123.70
2018,06,10,06,51,121.00
2018,06,10,06,52,69.70
2018,06,10,06,53,71.00
2018,06,10,06,54,74.00
2018,06,10,06,55,149.40
2018,06,10,06,56,173.40
2018,06,10,06,57,152.70
2018,06,10,06,58,151.00
2018,06,10,06,59,143.50
2018,06,10,07,00,105.80
2018,06,10,07,01,85.80
2018,06,10,07,02,88.00
2018,06,10,07,03,111.70
2018,06,10,07,04,118.00
2018,06,10,07,05,154.90
2018,06,10,07,06,137.00
2018,06,10,07,07,175.30
2018,06,10,07,08,245.50
2018,06,10,07,09,254.60
2018,06,10,07,10,237.30
2018,06,10,07,11,230.20
2018,06,10,07,12,222.80
2018,06,10,07,13,149.80
2018,06,10,07,14,113.00
2018,06,10,07,15,187.50
2018,06,10,07,16,256.30
2018,06,10,07,17,247.80
2018,06,10,07,18,224.80
2018,06,10,07,19,227.60
2018,06,10,07,20,217.20
2018,06,10,07,21,229.00
2018,06,10,07,22,236.50
2018,06,10,07,23,248.60
2018,06,10,07,24,256.80
2018,06,10,07,25,247.30
2018,06,10,07,26,268.60
2018,06,10,07,27,281.50
2018,06,10,07,28,292.80
2018,06,10,07,29,304.50
2018,06,10,07,30,318.90
2018,06,10,07,31,326.00
2018,06,10,07,32,328.90
2018,06,10,07,33,332.00
2018,06,10,07,34,325.30
2018,06,10,07,35,306.80
2018,06,10,07,36,322.50
2018,06,10,07,37,337.20
2018,06,10,07,38,342.20
2018,06,10,07,39,343.00
2018,06,10,07,40,348.60
2018,06,10,07,41,352.00
2018,06,10,07,42,352.00
2018,06,10,07,43,352.50
2018,06,10,07,44,355.50
2018,06,10,07,45,358.50
2018,06,10,07,46,360.10
2018,06,10,07,47,365.10
2018,06,10,07,48,371.90
2018,06,10,07,49,377.60
2018,06,10,07,50,379.30
2018,06,10,07,51,378.40
2018,06,10,07,52,383.80
2018,06,10,07,53,385.00
2018,06,10,07,54,249.10
2018,06,10,07,55,192.80
2018,06,10,07,56,174.80
2018,06,10,07,57,170.50
2018,06,10,07,58,163.10
2018,06,10,07,59,164.40
2018,06,10,08,00,174.40
2018,06,10,08,01,200.00
2018,06,10,08,02,212.10
2018,06,10,08,03,246.00
2018,06,10,08,04,271.70
2018,06,10,08,05,295.00
2018,06,10,08,06,312.20
2018,06,10,08,07,373.20
2018,06,10,08,08,352.40
2018,06,10,08,09,177.00
2018,06,10,08,10,171.00
2018,06,10,08,11,171.00
2018,06,10,08,12,393.00
2018,06,10,08,13,525.30
2018,06,10,08,14,460.50
2018,06,10,08,15,454.50
2018,06,10,08,16,519.60
2018,06,10,08,17,519.10
2018,06,10,08,18,522.00
2018,06,10,08,19,586.40
2018,06,10,08,20,608.00
2018,06,10,08,21,608.00
2018,06,10,08,22,280.50
2018,06,10,08,23,339.80
2018,06,10,08,24,263.60
2018,06,10,08,25,227.00
2018,06,10,08,26,227.00
2018,06,10,08,27,227.00
2018,06,10,08,28,455.60
2018,06,10,08,29,459.40
2018,06,10,08,30,537.40
2018,06,10,08,31,566.00
2018,06,10,08,32,566.00
2018,06,10,08,33,322.90
2018,06,10,08,34,241.70
2018,06,10,08,35,255.00
2018,06,10,08,36,535.80
2018,06,10,08,37,492.50
2018,06,10,08,38,453.80
2018,06,10,08,39,475.50
2018,06,10,08,40,549.00
2018,06,10,08,41,572.60
2018,06,10,08,42,577.10
2018,06,10,08,43,574.70
2018,06,10,08,44,590.50
2018,06,10,08,45,528.10
2018,06,10,08,46,520.30
2018,06,10,08,47,575.50
2018,06,10,08,48,584.20
2018,06,10,08,49,584.00
2018,06,10,08,50,582.70
2018,06,10,08,51,573.80
2018,06,10,08,52,586.00
2018,06,10,08,53,592.00
2018,06,10,08,54,594.60
2018,06,10,08,55,608.80
2018,06,10,08,56,622.80
2018,06,10,08,57,609.20
2018,06,10,08,58,605.00
2018,06,10,08,59,605.00
2018,06,10,09,00,597.00
2018,06,10,09,01,594.80
2018,06,10,09,02,598.00
2018,06,10,09,03,605.20
2018,06,10,09,04,563.40
2018,06,10,09,05,305.20
2018,06,10,09,06,255.00
2018,06,10,09,07,418.50
2018,06,10,09,08,578.80
2018,06,10,09,09,573.80
2018,06,10,09,10,573.00
2018,06,10,09,11,573.00
2018,06,10,09,12,574.80
2018,06,10,09,13,582.00
2018,06,10,09,14,588.00
2018,06,10,09,15,596.00
2018,06,10,09,16,603.70
2018,06,10,09,17,609.20
2018,06,10,09,18,613.30
2018,06,10,09,19,615.00
2018,06,10,09,20,616.60
2018,06,10,09,21,621.60
2018,06,10,09,22,628.50
2018,06,10,09,23,637.90
2018,06,10,09,24,653.40
2018,06,10,09,25,668.00
2018,06,10,09,26,669.60
2018,06,10,09,27,708.40
2018,06,10,09,28,742.40
2018,06,10,09,29,782.20
2018,06,10,09,30,791.00
2018,06,10,09,31,791.00
2018,06,10,09,32,796.50
2018,06,10,09,33,820.00
2018,06,10,09,34,796.00
2018,06,10,09,35,796.00
2018,06,10,09,36,578.90
2018,06,10,09,37,441.20
2018,06,10,09,38,436.00
2018,06,10,09,39,435.70
2018,06,10,09,40,434.00
2018,06,10,09,41,434.00
2018,06,10,09,42,312.50
2018,06,10,09,43,200.70
2018,06,10,09,44,197.60
2018,06,10,09,45,192.50
2018,06,10,09,46,187.70
2018,06,10,09,47,183.50
2018,06,10,09,48,177.00
2018,06,10,09,49,171.50
2018,06,10,09,50,163.00
2018,06,10,09,51,154.40
2018,06,10,09,52,151.20
2018,06,10,09,53,149.30
2018,06,10,09,54,152.80
2018,06,10,09,55,158.00
2018,06,10,09,56,172.90
2018,06,10,09,57,199.30
2018,06,10,09,58,225.40
2018,06,10,09,59,239.80
2018,06,10,10,00,249.40
2018,06,10,10,01,258.00
2018,06,10,10,02,364.40
2018,06,10,10,03,508.00
2018,06,10,10,04,492.00
2018,06,10,10,05,692.00
2018,06,10,10,06,820.70
2018,06,10,10,07,779.20
2018,06,10,10,08,812.70
2018,06,10,10,09,837.00
2018,06,10,10,10,636.50
2018,06,10,10,11,436.00
2018,06,10,10,12,274.50
2018,06,10,10,13,242.90
2018,06,10,10,14,248.00
2018,06,10,10,15,257.00
2018,06,10,10,16,279.20
2018,06,10,10,17,297.80
2018,06,10,10,18,313.00
2018,06,10,10,19,211.80
2018,06,10,10,20,179.10
2018,06,10,10,21,184.60
2018,06,10,10,22,198.00
2018,06,10,10,23,213.00
2018,06,10,10,24,213.00
2018,06,10,10,25,213.00
2018,06,10,10,26,213.00
2018,06,10,10,27,357.50
2018,06,10,10,28,363.00
2018,06,10,10,29,248.20
2018,06,10,10,30,245.80
2018,06,10,10,31,264.50
2018,06,10,10,32,278.00
2018,06,10,10,33,278.00
2018,06,10,10,34,848.80
2018,06,10,10,35,917.40
2018,06,10,10,36,928.10
2018,06,10,10,37,947.70
2018,06,10,10,38,965.00
2018,06,10,10,39,505.80
2018,06,10,10,40,309.00
2018,06,10,10,41,309.00
2018,06,10,10,42,309.00
2018,06,10,10,43,309.00
2018,06,10,10,44,309.00
2018,06,10,10,45,309.00
2018,06,10,10,46,309.00
2018,06,10,10,47,855.00
2018,06,10,10,48,1040.40
2018,06,10,10,49,1041.00
2018,06,10,10,50,1041.00
2018,06,10,10,51,1041.00
2018,06,10,10,52,1009.60
2018,06,10,10,53,976.50
2018,06,10,10,54,966.80
2018,06,10,10,55,954.80
2018,06,10,10,56,951.80
2018,06,10,10,57,957.00
2018,06,10,10,58,959.20
2018,06,10,10,59,963.00
2018,06,10,11,00,975.90
2018,06,10,11,01,986.30
2018,06,10,11,02,989.70
2018,06,10,11,03,999.10
2018,06,10,11,04,1019.80
2018,06,10,11,05,1046.00
2018,06,10,11,06,671.80
2018,06,10,11,07,344.80
2018,06,10,11,08,336.00
2018,06,10,11,09,436.90
2018,06,10,11,10,452.00
2018,06,10,11,11,452.00
2018,06,10,11,12,452.00
2018,06,10,11,13,359.80
2018,06,10,11,14,276.00
2018,06,10,11,15,281.20
2018,06,10,11,16,283.00
2018,06,10,11,17,283.00
2018,06,10,11,18,283.00
2018,06,10,11,19,283.00
2018,06,10,11,20,476.30
2018,06,10,11,21,689.00
2018,06,10,11,22,373.40
2018,06,10,11,23,224.90
2018,06,10,11,24,219.10
2018,06,10,11,25,225.00
2018,06,10,11,26,212.80
2018,06,10,11,27,191.40
2018,06,10,11,28,187.30
2018,06,10,11,29,180.80
2018,06,10,11,30,172.20
2018,06,10,11,31,162.60
2018,06,10,11,32,158.50
2018,06,10,11,33,153.40
2018,06,10,11,34,149.40
2018,06,10,11,35,145.20
2018,06,10,11,36,141.60
2018,06,10,11,37,135.90
2018,06,10,11,38,137.60
2018,06,10,11,39,141.00
2018,06,10,11,40,145.80
2018,06,10,11,41,156.90
2018,06,10,11,42,164.60
2018,06,10,11,43,174.10
2018,06,10,11,44,185.60
2018,06,10,11,45,201.20
2018,06,10,11,46,217.90
2018,06,10,11,47,235.80
2018,06,10,11,48,255.50
2018,06,10,11,49,278.20
2018,06,10,11,50,305.00
2018,06,10,11,51,352.60
2018,06,10,11,52,367.00
2018,06,10,11,53,376.00
2018,06,10,11,54,374.60
2018,06,10,11,55,305.30
2018,06,10,11,56,268.60
2018,06,10,11,57,253.20
2018,06,10,11,58,242.00
2018,06,10,11,59,239.40
2018,06,10,12,00,244.20
2018,06,10,12,01,248.80
2018,06,10,12,02,250.00
2018,06,10,12,03,252.00
2018,06,10,12,04,240.20
2018,06,10,12,05,228.00
2018,06,10,12,06,216.40
2018,06,10,12,07,206.20
2018,06,10,12,08,204.00
2018,06,10,12,09,204.00
2018,06,10,12,10,204.00
2018,06,10,12,11,229.60
2018,06,10,12,12,259.30
2018,06,10,12,13,306.00
2018,06,10,12,14,306.00
2018,06,10,12,15,612.70
2018,06,10,12,16,1107.20
2018,06,10,12,17,1094.90
2018,06,10,12,18,1090.00
2018,06,10,12,19,1047.70
2018,06,10,12,20,240.90
2018,06,10,12,21,226.90
2018,06,10,12,22,220.60
2018,06,10,12,23,220.00
2018,06,10,12,24,220.00
2018,06,10,12,25,220.70
2018,06,10,12,26,226.40
2018,06,10,12,27,247.10
2018,06,10,12,28,267.00
2018,06,10,12,29,292.00
2018,06,10,12,30,292.00
2018,06,10,12,31,292.00
2018,06,10,12,32,385.50
2018,06,10,12,33,397.60
2018,06,10,12,34,396.00
2018,06,10,12,35,396.00
2018,06,10,12,36,326.90
2018,06,10,12,37,201.30
2018,06,10,12,38,186.90
2018,06,10,12,39,181.00
2018,06,10,12,40,160.80
2018,06,10,12,41,146.90
2018,06,10,12,42,140.00
2018,06,10,12,43,135.10
2018,06,10,12,44,129.30
2018,06,10,12,45,124.50
2018,06,10,12,46,121.50
2018,06,10,12,47,122.90
2018,06,10,12,48,125.30
2018,06,10,12,49,127.00
2018,06,10,12,50,127.00
2018,06,10,12,51,125.00
2018,06,10,12,52,119.80
2018,06,10,12,53,118.00
2018,06,10,12,54,118.00
2018,06,10,12,55,115.30
2018,06,10,12,56,98.20
2018,06,10,12,57,91.00
2018,06,10,12,58,85.50
2018,06,10,12,59,81.80
2018,06,10,13,00,81.00
2018,06,10,13,01,79.10
2018,06,10,13,02,76.20
2018,06,10,13,03,78.20
2018,06,10,13,04,82.30
2018,06,10,13,05,86.00
2018,06,10,13,06,89.90
2018,06,10,13,07,96.60
2018,06,10,13,08,104.30
2018,06,10,13,09,108.00
2018,06,10,13,10,127.50
2018,06,10,13,11,140.20
2018,06,10,13,12,148.00
2018,06,10,13,13,148.00
2018,06,10,13,14,181.80
2018,06,10,13,15,221.40
2018,06,10,13,16,250.00
2018,06,10,13,17,250.00
2018,06,10,13,18,250.00
2018,06,10,13,19,250.00
2018,06,10,13,20,253.00
2018,06,10,13,21,268.60
2018,06,10,13,22,298.80
2018,06,10,13,23,317.30
2018,06,10,13,24,338.00
2018,06,10,13,25,338.00
2018,06,10,13,26,384.50
2018,06,10,13,27,382.90
2018,06,10,13,28,375.00
2018,06,10,13,29,327.90
2018,06,10,13,30,315.50
2018,06,10,13,31,274.00
2018,06,10,13,32,255.40
2018,06,10,13,33,248.00
2018,06,10,13,34,248.00
2018,06,10,13,35,248.00
2018,06,10,13,36,214.90
2018,06,10,13,37,202.00
2018,06,10,13,38,198.80
2018,06,10,13,39,190.00
2018,06,10,13,40,187.50
2018,06,10,13,41,185.60
2018,06,10,13,42,186.00
2018,06,10,13,43,195.80
2018,06,10,13,44,210.70
2018,06,10,13,45,221.00
2018,06,10,13,46,231.00
2018,06,10,13,47,250.50
2018,06,10,13,48,261.50
2018,06,10,13,49,273.80
2018,06,10,13,50,286.80
2018,06,10,13,51,301.70
2018,06,10,13,52,309.80
2018,06,10,13,53,321.80
2018,06,10,13,54,341.50
2018,06,10,13,55,356.00
2018,06,10,13,56,405.00
2018,06,10,13,57,409.20
2018,06,10,13,58,396.00
2018,06,10,13,59,385.00
2018,06,10,14,00,350.40
2018,06,10,14,01,346.40
2018,06,10,14,02,345.00
2018,06,10,14,03,390.80
2018,06,10,14,04,374.10
2018,06,10,14,05,346.30
2018,06,10,14,06,348.50
2018,06,10,14,07,350.00
2018,06,10,14,08,347.80
2018,06,10,14,09,344.00
2018,06,10,14,10,339.00
2018,06,10,14,11,329.90
2018,06,10,14,12,321.30
2018,06,10,14,13,315.20
2018,06,10,14,14,315.60
2018,06,10,14,15,312.00
2018,06,10,14,16,301.20
2018,06,10,14,17,283.30
2018,06,10,14,18,263.80
2018,06,10,14,19,241.40
2018,06,10,14,20,222.80
2018,06,10,14,21,207.80
2018,06,10,14,22,200.00
2018,06,10,14,23,187.60
2018,06,10,14,24,181.00
2018,06,10,14,25,170.30
2018,06,10,14,26,166.70
2018,06,10,14,27,166.50
2018,06,10,14,28,175.00
2018,06,10,14,29,167.90
2018,06,10,14,30,150.80
2018,06,10,14,31,141.40
2018,06,10,14,32,131.30
2018,06,10,14,33,124.50
2018,06,10,14,34,118.20
2018,06,10,14,35,111.60
2018,06,10,14,36,106.50
2018,06,10,14,37,100.10
2018,06,10,14,38,95.60
2018,06,10,14,39,90.70
2018,06,10,14,40,86.00
2018,06,10,14,41,84.60
2018,06,10,14,42,81.00
2018,06,10,14,43,81.00
2018,06,10,14,44,85.30
2018,06,10,14,45,91.90
2018,06,10,14,46,97.30
2018,06,10,14,47,100.50
2018,06,10,14,48,116.20
2018,06,10,14,49,125.80
2018,06,10,14,50,135.80
2018,06,10,14,51,146.20
2018,06,10,14,52,154.60
2018,06,10,14,53,162.30
2018,06,10,14,54,164.90
2018,06,10,14,55,177.30
2018,06,10,14,56,182.60
2018,06,10,14,57,185.60
2018,06,10,14,58,187.30
2018,06,10,14,59,188.00
2018,06,10,15,00,192.70
2018,06,10,15,01,197.50
2018,06,10,15,02,202.00
2018,06,10,15,03,202.00
2018,06,10,15,04,213.60
2018,06,10,15,05,223.00
2018,06,10,15,06,231.70
2018,06,10,15,07,234.00
2018,06,10,15,08,243.00
2018,06,10,15,09,248.40
2018,06,10,15,10,266.80
2018,06,10,15,11,279.80
2018,06,10,15,12,289.50
2018,06,10,15,13,292.00
2018,06,10,15,14,293.80
2018,06,10,15,15,294.70
2018,06,10,15,16,300.30
2018,06,10,15,17,305.60
2018,06,10,15,18,308.50
2018,06,10,15,19,309.00
2018,06,10,15,20,308.20
2018,06,10,15,21,301.20
2018,06,10,15,22,290.30
2018,06,10,15,23,278.00
2018,06,10,15,24,264.20
2018,06,10,15,25,250.20
2018,06,10,15,26,237.80
2018,06,10,15,27,225.30
2018,06,10,15,28,223.00
2018,06,10,15,29,199.00
2018,06,10,15,30,190.00
2018,06,10,15,31,190.00
2018,06,10,15,32,170.60
2018,06,10,15,33,146.20
2018,06,10,15,34,134.10
2018,06,10,15,35,123.90
2018,06,10,15,36,113.10
2018,06,10,15,37,103.80
2018,06,10,15,38,100.00
2018,06,10,15,39,93.00
2018,06,10,15,40,81.40
2018,06,10,15,41,75.20
2018,06,10,15,42,69.40
2018,06,10,15,43,63.00
2018,06,10,15,44,61.20
2018,06,10,15,45,55.30
2018,06,10,15,46,54.00
2018,06,10,15,47,54.00
2018,06,10,15,48,55.60
2018,06,10,15,49,57.70
2018,06,10,15,50,58.60
2018,06,10,15,51,62.00
2018,06,10,15,52,64.80
2018,06,10,15,53,69.00
2018,06,10,15,54,74.20
2018,06,10,15,55,81.50
2018,06,10,15,56,87.20
2018,06,10,15,57,93.00
2018,06,10,15,58,95.20
2018,06,10,15,59,102.00
2018,06,10,16,00,103.60
2018,06,10,16,01,106.20
2018,06,10,16,02,108.50
2018,06,10,16,03,110.70
2018,06,10,16,04,113.10
2018,06,10,16,05,115.20
2018,06,10,16,06,118.80
2018,06,10,16,07,121.60
2018,06,10,16,08,124.20
2018,06,10,16,09,127.40
2018,06,10,16,10,131.40
2018,06,10,16,11,137.60
2018,06,10,16,12,141.00
2018,06,10,16,13,143.80
2018,06,10,16,14,150.80
2018,06,10,16,15,158.90
2018,06,10,16,16,162.00
2018,06,10,16,17,178.70
2018,06,10,16,18,191.10
2018,06,10,16,19,202.80
2018,06,10,16,20,217.40
2018,06,10,16,21,238.60
2018,06,10,16,22,260.00
2018,06,10,16,23,267.00
2018,06,10,16,24,284.90
2018,06,10,16,25,311.90
2018,06,10,16,26,296.10
2018,06,10,16,27,299.40
2018,06,10,16,28,297.00
2018,06,10,16,29,300.20
2018,06,10,16,30,306.50
2018,06,10,16,31,310.70
2018,06,10,16,32,311.00
2018,06,10,16,33,312.00
2018,06,10,16,34,315.00
2018,06,10,16,35,318.90
2018,06,10,16,36,322.00
2018,06,10,16,37,329.50
2018,06,10,16,38,332.00
2018,06,10,16,39,386.00
2018,06,10,16,40,476.00
2018,06,10,16,41,536.00
2018,06,10,16,42,626.00
2018,06,10,16,43,626.00
2018,06,10,16,44,456.50
2018,06,10,16,45,380.30
2018,06,10,16,46,373.00
2018,06,10,16,47,373.90
2018,06,10,16,48,376.00
2018,06,10,16,49,376.00
2018,06,10,16,50,615.60
2018,06,10,16,51,792.70
2018,06,10,16,52,838.10
2018,06,10,16,53,843.10
2018,06,10,16,54,838.00
2018,06,10,16,55,838.00
2018,06,10,16,56,838.00
2018,06,10,16,57,838.00
2018,06,10,16,58,404.50
2018,06,10,16,59,238.90
2018,06,10,17,00,230.00
2018,06,10,17,01,224.20
2018,06,10,17,02,205.10
2018,06,10,17,03,200.40
2018,06,10,17,04,197.80
2018,06,10,17,05,253.20
2018,06,10,17,06,272.00
2018,06,10,17,07,272.00